STARLINK-32721 (62438 NORAD) Tracking and Keplerian Element Data

This shows tracking and keplerian element data for the satellite.

Feedback or suggestion? Click here.




ElementValue
Catalog62438
NameSTARLINK-32721
Epoch Orbit674
Epoch Day35.16668981
Epoch Year2025
RAAN34.6635
Inclination53.1597
Eccentricity0.0001094
Argument of Perigee79.2521
Mean Anonmoly22.9661
Mean Motion15.44949136
Decay Rate-0.01542668
L11 62438U 24251G 25035.16668981 -.01542668 00000+0 -35770-1 0 9993
L22 62438 53.1597 34.6635 0001094 79.2521 22.9661 15.44949136 6741



Live tracking and technical data element details for STARLINK-32721 (NORAD 62438). STARLINK-32721 can be tracked NOW for your location showing map with azimuth and elevation plus other details from your city location.







IsCatalogInMostPopularTable: catalog: 62438, numindb: 24
Update: records affected: 1



GetName: 62438 STARLINK-32721

Hit Count: updated at: Sat, 24 May 2025 17:19:56 GMT